Regional Weather Roundup
Issued by NWS

Home | Current Version | Previous Version | Graphics & Text | Print | Product List | Glossary Off
Versions: 1 2 3 4 5 6 7 8 9 10 11 12 13 14 15 16 17 18 19 20 21 22 23 24 25 26 27 28 29 30 31 32 33 34 35 36 37 38 39 40 41 42 43 44 45 46 47 48 49 50

000
ASUS43 KTOP 240508
RWRKS

WEATHER ROUNDUP FOR KANSAS
NATIONAL WEATHER SERVICE GOODLAND KS
1100 PM CST SUN NOV 23 2014

NOTE:  "FAIR" INDICATES FEW OR NO CLOUDS BELOW 12,000 FEET WITH NO
SIGNIFICANT WEATHER AND/OR OBSTRUCTIONS TO VISIBILITY.

KSZ001>006-013>018-027>032-041>047-240600-
NORTHWEST KANSAS

CITY           SKY/WX    TMP DP  RH WIND       PRES   REMARKS
GOODLAND       CLEAR     30  13  49 NW18      29.83S WCI  18
HAYS           CLEAR     36  14  41 NW10      29.75S WCI  28
HILL CITY      CLEAR     36  15  42 W12       29.77R WCI  28
RUSSELL        CLEAR     34  22  61 NW14      29.71F WCI  25
$$

KSZ061>065-074>080-084>089-240600-
SOUTHWEST KANSAS

CITY           SKY/WX    TMP DP  RH WIND       PRES   REMARKS
DODGE CITY     CLEAR     36  13  38 NW15      29.80R WCI  27
ELKHART          N/A    N/A N/A N/A MISG        N/A
GARDEN CITY    CLEAR     27  13  55 NW10      29.84R WCI  17
GREAT BEND     CLEAR     36  18  48 NW13      29.75S WCI  27
LIBERAL        CLEAR     34  14  44 NW10      29.88R WCI  26
PRATT          PTCLDY    36  21  55 NW13      29.76R WCI  27
$$

KSZ066>073-081>083-090>101-240600-
SOUTHEAST KANSAS

CITY           SKY/WX    TMP DP  RH WIND       PRES   REMARKS
CHANUTE        CLOUDY    43  36  76 NW15      29.56R
COFFEYVILLE    CLOUDY    44  37  76 NW13      29.60R
HUTCHINSON     CLOUDY    43  24  47 N23G31    29.68R
MEDICINE LODGE   N/A     41  24  51 NW10      29.74R
NEWTON         CLOUDY    39  28  65 NW20G25   29.66S WCI  30
PARSONS        CLOUDY    43  37  79 NW16      29.59R
WICHITA INTL   CLOUDY    43  31  62 NW20G28   29.67R
WICHITA JABRA  CLOUDY    41  32  70 NW10      29.66R
WICHITA MCCONL CLOUDY    42  35  75 NW14      29.67R
WINFIELD       CLOUDY    42  35  76 NW10      29.67R
$$

KSZ007>012-019>026-033>040-048>060-102>105-240600-
NORTHEAST KANSAS

CITY           SKY/WX    TMP DP  RH WIND       PRES   REMARKS
CONCORDIA      MOCLDY    39  25  57 NW15G25   29.64S WCI  31
EMPORIA        CLOUDY    41  34  76 NW14      29.58R
LAWRENCE       CLOUDY    41  33  73 NW16G23   29.51S
MANHATTAN      CLOUDY    40  32  73 NW6       29.61R
MARYSVILLE     MOCLDY    37  27  65 NW32G43   29.58S WCI  25
OLATHE IND     CLOUDY    41  34  76 NW16G26   29.49R
OLATHE EXE     CLOUDY    42  34  73 NW16G26   29.46S
SALINA         CLOUDY    42  26  53 NW24      29.67R
TOPEKA BILLARD CLOUDY    43  30  60 NW20G31   29.54S
TOPEKA FORBES  CLOUDY    42  31  64 NW21G30   29.53S
$$



USA.gov is the U.S. government's official web portal to all federal, state and local government web resources and services.